Regional Weather Roundup
Issued by NWS

Home | Current Version | Previous Version | Graphics & Text | Print | Product List | Glossary On
Versions: 1 2 3 4 5 6 7 8 9 10 11 12 13 14 15 16 17 18 19 20 21 22 23 24 25 26 27 28 29 30 31 32 33 34 35 36 37 38 39 40 41 42 43 44 45 46 47 48 49 50
000
ASUS43 KMPX 020701
RWRMN
WEATHER ROUNDUP FOR MINNESOTA
NATIONAL WEATHER SERVICE TWIN CITIES/CHANHASSEN MN
200 AM CDT MON MAY 02 2016


NOTE: "FAIR" INDICATES FEW OR NO CLOUDS BELOW 12,000 FEET WITH NO
SIGNIFICANT WEATHER AND/OR OBSTRUCTIONS TO VISIBILITY. N/A MEANS
CURRENT SKY AND/OR WEATHER CONDITIONS ARE NOT AVAILABLE.

MNZ060>063-068>070-020800-
   Twin Cities Metro

CITY           SKY/WX    TMP DP  RH WIND       PRES   REMARKS
TWIN CITIES    CLEAR     49  35  58 N3        30.12S
ST PAUL        CLEAR     44  36  73 NW5       30.13S
CRYSTAL        CLEAR     44  35  70 CALM      30.11S
BLAINE         CLEAR     45  36  70 CALM      30.12S
EDEN PRAIRIE   CLEAR     46  35  65 CALM      30.11S
SOUTH ST PAUL  CLEAR     46  34  62 CALM      30.12S
LAKE ELMO      FAIR      37  34  87 CALM      30.12S
$$
MNZ001>005-007-008-013>017-022>024-027-028-020800-
   Northwest Minnesota

CITY           SKY/WX    TMP DP  RH WIND       PRES   REMARKS
BEMIDJI        CLEAR     33  28  80 CALM      30.10F
HALLOCK        CLOUDY    46  30  53 SE6       30.08S
ROSEAU         CLOUDY    45  34  65 S5        30.09F
WARROAD        CLOUDY    43  36  75 S3        30.10F
THIEF RVR FALL PTCLDY    45  23  42 S5        30.10F
CROOKSTON      CLOUDY    45  32  61 S6        30.10F
FOSSTON        PTCLDY    36  27  69 CALM      30.10F
DETROIT LAKES  CLEAR     45  34  65 CALM      30.12F
MOORHEAD       CLOUDY    45  34  65 S5        30.11F HAZE
PARK RAPIDS    PTCLDY    36  29  75 CALM      30.11F
MAHNOMEN       FAIR      41  32  69 SE3       30.11F
$$
MNZ006-009>011-018-025>026-020800-
   North Central Minnesota

CITY           SKY/WX    TMP DP  RH WIND       PRES   REMARKS
BAUDETTE       CLOUDY    35  29  78 SW6       30.09F WCI  30
FLAG ISLAND    CLOUDY    46  34  61 CALM      30.08F
INTL FALLS     CLEAR     30  27  88 SE6       30.10F WCI  24
WASKISH        PTCLDY    36  36 100 CALM      30.10F
BIG FORK       CLEAR     32  28  86 CALM      30.11F
LONGVILLE      PTCLDY    34  32  93 CALM      30.11F
GRAND RAPIDS   CLEAR     36  28  75 SE5       30.13F
CRANE LAKE     CLEAR     28  27  93 CALM      30.13F
ORR            PTCLDY    41  28  60 CALM      30.10S
COOK           PTCLDY    32  28  86 CALM      30.13S
WALKER         FAIR      37  32  81 W3        30.11F
$$
MNZ012-019>021-037-020800-
   Northeast Minnesota

CITY           SKY/WX    TMP DP  RH WIND       PRES   REMARKS
DULUTH         CLEAR     38  31  76 NE3       30.12F
ELY            CLEAR     32  28  86 CALM      30.13S
HIBBING        CLEAR     28  27  96 CALM      30.12F
EVELETH        CLEAR     32  32 100 CALM      30.14F
DULUTH HARBOR  CLEAR     37  36  93 CALM      30.16S
TWO HARBORS    CLEAR     34  28  80 CALM      30.12F
SILVER BAY     CLEAR     30  28  93 CALM      30.12F
GRAND MARAIS     N/A     33  30  88 N3        30.14F
G MARAIS ARPRT CLEAR     28  25  86 N5        30.13F WCI  23
$$
MNZ029>031-032-039>041-046>048-054>057-064-020800-
   West Central Minnesota

CITY           SKY/WX    TMP DP  RH WIND       PRES   REMARKS
FERGUS FALLS   CLEAR     43  34  70 E5        30.10S
WHEATON        CLEAR     46  39  76 SW5       30.14F
MORRIS         CLEAR     41  34  75 S5        30.13S
ALEXANDRIA     CLEAR     44  31  60 SW3       30.13F
ELBOW LAKE     FAIR      45  32  61 E6        30.13S
WADENA         PTCLDY    37  30  75 CALM      30.12S
GLENWOOD       PTCLDY    45  30  57 S5        30.14S
APPLETON       CLEAR     41  37  87 CALM      30.13F
BENSON         CLEAR     37  30  75 CALM      30.14S
ORTONVILLE     CLEAR     41  34  75 CALM      30.14S
MADISON        CLEAR     41  34  75 CALM      30.14S
WILLMAR        FAIR      39  34  81 CALM      30.15S
$$
MNZ033>034-036-042>043-049>051-058-059-020800-
   Central Minnesota

CITY           SKY/WX    TMP DP  RH WIND       PRES   REMARKS
ST CLOUD       CLEAR     38  32  79 CALM      30.13S
SAUK CENTRE    FAIR      37  32  82 CALM      30.14S
PAYNESVILLE    CLEAR     35  32  88 W3        30.15R
AITKIN         PTCLDY    34  30  86 CALM      30.11F
PINE RIVER     CLEAR     36  30  80 CALM      30.15F
BRAINERD       PTCLDY    37  30  75 CALM      30.12F
STAPLES        CLEAR     39  32  75 CALM      30.12F
LONG PRAIRIE   FAIR      37  34  87 CALM      30.14S
LITTLE FALLS   PTCLDY    36  32  87 CALM      30.14S
LITCHFIELD     CLEAR     43  37  81 CALM      30.14S
BUFFALO        CLEAR     41  34  77 CALM      30.14S
MAPLE LAKE     CLEAR     38  35  89 CALM      30.14S
HUTCHINSON     CLOUDY    39  36  89 CALM      30.14F
$$
MNZ037-044-045-052-053-020800-
   East Central Minnesota

CITY           SKY/WX    TMP DP  RH WIND       PRES   REMARKS
PRINCETON        N/A     37  34  87 CALM      30.13S
MORA           CLEAR     36  32  87 CALM      30.15S
CAMBRIDGE      CLEAR     37  28  70 CALM      30.12S
RUSH CITY      CLEAR     38  33  82 CALM      30.13S
MOOSE LAKE     PTCLDY    36  32  87 CALM      30.12F
HINCKLEY       FAIR      37  34  87 N3        30.14S
CLOQUET        CLEAR     32  28  86 CALM      30.13F
MCGREGOR       PTCLDY    37  32  81 CALM      30.14S
$$
MNZ071>073-080-081-089-090-097-098-020800-
   Southwest Minnesota

CITY           SKY/WX    TMP DP  RH WIND       PRES   REMARKS
MONTEVIDEO     CLEAR     43  30  61 CALM      30.16R
GRANITE FALLS  CLEAR     40  34  78 W3        30.16S
CANBY          CLEAR     43  36  78 SW6       30.16S
MARSHALL       CLEAR     41  33  73 SW6       30.15S
REDWOOD FALLS  CLEAR     44  33  65 CALM      30.13F
OLIVIA         CLEAR     39  32  75 CALM      30.13S
WINDOM         CLEAR     39  37  93 CALM      30.14S
WORTHINGTON    CLEAR     39  35  86 W7        30.15F
JACKSON        MOCLDY    43  36  75 W3        30.14F
TRACY          CLEAR     42  35  75 SW7       30.15S
SLAYTON        CLEAR     39  35  87 W5        30.16S
$$
MNZ065>067-074>077-082>085-091>093-020800-
   South Central Minnesota

CITY           SKY/WX    TMP DP  RH WIND       PRES   REMARKS
MANKATO        CLEAR     46  34  61 N3        30.13S
NEW ULM        CLEAR     43  36  75 NW3       30.14S
ST JAMES       CLEAR     37  34  87 CALM      30.15S
FAIRMONT       CLEAR     43  34  70 W7        30.12F
GLENCOE        CLEAR     42  38  86 CALM      30.12F
OWATONNA       CLEAR     43  39  87 CALM      30.12S
WASECA         CLEAR     39  36  87 CALM      30.13S
ALBERT LEA     PTCLDY    46  43  87 SW2       30.12F
$$
MNZ078>079-086>088-094>096-020800-
   Southeast Minnesota

CITY           SKY/WX    TMP DP  RH WIND       PRES   REMARKS
ROCHESTER      CLOUDY    45  41  86 W8        30.12S
RED WING       CLEAR     45  34  65 CALM      30.11R
STANTON        CLOUDY    40  36  85 CALM      30.11S
DODGE CENTER   MOCLDY    41  39  93 W6        30.11F
WINONA         CLOUDY    46  43  87 CALM      30.13R
AUSTIN         CLOUDY    45  39  81 CALM      30.12R
PRESTON        CLOUDY    44  39  84 NW5       30.12S
$$
ABBREVIATIONS USED IN REMARKS
   TC - TEMPERATURES IN CELSIUS
  WCI - WIND CHILL INDEX
   HX - HEAT INDEX
  VSB - VISIBILITY
$$



USA.gov is the U.S. government's official web portal to all federal, state and local government web resources and services.